Location: Invercargill
(46.4000°S, 168.3500°E)
Time: 00:41:02
(UTC+12:00)

Transit 2A - All Passes

Search period start: 23 July 2019 00:00
Search period end: 02 August 2019 00:00
Orbit: 595 x 964 km, 66.7° (Epoch: 21 July)

Date Brightness Start Highest point End Pass type
(mag) Time Alt. Az. Time Alt. Az. Time Alt. Az.
23 Jul - 04:19:55 10° ENE 04:20:59 11° ENE 04:22:05 10° E visible
23 Jul - 05:58:50 10° NNW 06:03:14 88° SW 06:08:00 10° SSE visible
23 Jul - 07:44:06 10° WSW 07:47:12 17° SW 07:50:27 10° S visible
23 Jul - 12:58:52 10° SSW 13:03:33 29° SE 13:08:37 10° ENE daylight
23 Jul - 14:41:40 10° SW 14:47:07 62° WNW 14:53:04 10° NNE daylight
23 Jul - 16:29:00 10° W 16:29:26 10° WNW 16:29:53 10° WNW daylight
24 Jul - 05:24:50 10° NNW 05:29:10 62° ENE 05:33:50 10° SE visible
24 Jul - 07:09:13 10° W 07:12:48 22° SW 07:16:36 10° SSE visible
24 Jul - 12:24:58 10° SSW 12:29:13 23° SE 12:33:46 10° E daylight
24 Jul - 14:07:30 10° SW 14:13:02 85° WNW 14:19:04 10° NNE daylight
24 Jul - 15:52:25 10° WSW 15:55:36 15° WNW 15:58:55 10° NW daylight
25 Jul - 04:51:02 10° N 04:55:09 41° ENE 04:59:34 10° SE visible
25 Jul - 06:34:30 10° WNW 06:38:26 29° SW 06:42:41 10° SSE visible
25 Jul - 11:51:06 10° S 11:54:49 19° SE 11:58:45 10° ESE daylight
25 Jul - 13:33:24 10° SSW 13:38:54 72° SE 13:44:55 10° NE daylight
25 Jul - 15:17:28 10° WSW 15:21:42 22° WNW 15:26:10 10° NNW daylight
26 Jul - 04:17:29 10° N 04:21:13 27° ENE 04:25:09 10° SE visible
26 Jul - 05:59:57 10° WNW 06:04:10 40° SW 06:08:43 10° SSE visible
26 Jul - 07:47:26 10° SW 07:48:50 11° SSW 07:50:17 10° S daylight
26 Jul - 11:17:17 10° S 11:20:21 15° SSE 11:23:34 10° ESE daylight
26 Jul - 12:59:21 10° SSW 13:04:42 54° SE 13:10:34 10° NE daylight
26 Jul - 14:42:54 10° SW 14:47:45 30° WNW 14:52:57 10° N daylight
27 Jul - 03:44:16 10° NNE 03:47:19 18° ENE 03:50:30 10° ESE visible
27 Jul - 05:25:35 10° NW 05:29:56 56° SW 05:34:42 10° SSE visible
27 Jul - 07:11:56 10° WSW 07:14:18 14° SSW 07:16:47 10° S visible
27 Jul - 10:43:36 10° S 10:45:51 12° SSE 10:48:10 10° SE daylight
27 Jul - 12:25:21 10° SSW 12:30:29 40° SE 12:36:05 10° ENE daylight
27 Jul - 14:08:30 10° SW 14:13:45 42° WNW 14:19:26 10° N daylight
28 Jul - 03:11:45 10° NE 03:13:29 12° ENE 03:15:15 10° E visible
28 Jul - 04:51:22 10° NW 04:55:47 82° WSW 05:00:36 10° SSE visible
28 Jul - 06:36:48 10° WSW 06:39:50 17° SSW 06:43:02 10° S visible
28 Jul - 10:10:17 10° S 10:11:17 10° SSE 10:12:19 10° SSE daylight
28 Jul - 11:51:23 10° SSW 11:56:12 31° SE 12:01:26 10° ENE daylight
28 Jul - 13:34:15 10° SW 13:39:43 58° WNW 13:45:41 10° NNE daylight
29 Jul - 04:17:19 10° NNW 04:21:42 68° ENE 04:26:27 10° SE visible
29 Jul - 06:01:53 10° W 06:05:25 21° SW 06:09:11 10° SSE visible
29 Jul - 11:17:27 10° SSW 11:21:52 25° SE 11:26:37 10° E daylight
29 Jul - 13:00:04 10° SW 13:05:38 80° WNW 13:11:44 10° NNE daylight
29 Jul - 14:45:12 10° WSW 14:48:09 14° WNW 14:51:13 10° NW daylight
30 Jul - 03:43:28 10° N 03:47:41 45° ENE 03:52:12 10° SE visible
30 Jul - 05:27:08 10° WNW 05:31:03 28° SW 05:35:16 10° SSE visible
30 Jul - 10:43:33 10° S 10:47:29 20° SE 10:51:39 10° E daylight
30 Jul - 12:25:56 10° SSW 12:31:31 77° ESE 12:37:36 10° NE daylight
30 Jul - 14:10:09 10° WSW 14:14:16 21° WNW 14:18:36 10° NNW daylight
31 Jul - 03:09:52 10° N 03:13:43 30° ENE 03:17:50 10° SE visible
31 Jul - 04:52:33 10° WNW 04:56:45 37° SW 05:01:19 10° SSE visible
31 Jul - 06:40:12 10° SW 06:41:31 11° SSW 06:42:50 10° S visible
31 Jul - 10:09:43 10° S 10:13:02 16° SSE 10:16:32 10° ESE daylight
31 Jul - 11:51:53 10° SSW 11:57:20 57° SE 12:03:18 10° NE daylight
31 Jul - 13:35:31 10° SW 13:40:20 29° WNW 13:45:28 10° NNW daylight
01 Aug - 02:36:34 10° NNE 02:39:49 20° ENE 02:43:15 10° ESE night (unlit)
01 Aug - 04:18:08 10° NW 04:22:30 52° SW 04:27:18 10° SSE visible
01 Aug - 06:04:40 10° SW 06:06:58 13° SSW 06:09:21 10° S visible
01 Aug - 09:35:58 10° S 09:38:32 13° SSE 09:41:12 10° SE daylight
01 Aug - 11:17:51 10° SSW 11:23:08 43° SE 11:28:51 10° ENE daylight
01 Aug - 13:01:07 10° SW 13:06:21 40° WNW 13:11:59 10° N daylight
